La Junta, CO

8:03 PM MST on December 05, 2016 (GMT -0700)
La Junta Municipal

Weather History for KLHX - February, 2014

Change the Weather History Date:

Sunday, February 9, 2014

  Actual Average Record
Temperature  
Mean Temperature 23 °F 33 °F  
Max Temperature 28 °F 47 °F 78 °F (1976)
Min Temperature 18 °F 19 °F -12 °F (2011)
Degree Days  
Heating Degree Days 42 32  
Month to date heating degree days 452 293  
Since 1 July heating degree days 3574 3550  
Cooling Degree Days 0 0  
Month to date cooling degree days 0 0  
Year to date cooling degree days 0 0  
Moisture  
Dew Point 17 °F    
Average Humidity 84    
Maximum Humidity 92    
Minimum Humidity 75    
Precipitation  
Precipitation 0.00 in 0.01 in 0.23 in (1998)
Month to date precipitation 0.07 0.10  
Year to date precipitation 0.16 0.39  
Sea Level Pressure  
Sea Level Pressure 30.09 in    
Wind  
Wind Speed 11 mph (East)    
Max Wind Speed 22 mph    
Max Gust Speed 30 mph    
Visibility 3 miles    
Events Fog    
T = Trace of Precipitation, MM = Missing Value Source: NWS Daily Summary

Daily Weather History Graph

Daily Weather History Graph

Search for Another Location

Airport or City:

Trip Planner

Search our weather history database for the weather conditions in past years. The results will help you decide how hot, cold, wet, or windy it might be!

Date:

Astronomy

Feb. 09, 2014 Rise Set
Actual Time 6:50 AM MST 5:26 PM MST
Civil Twilight 6:23 AM MST 5:53 PM MST
Nautical Twilight 5:52 AM MST 6:24 PM MST
Astronomical Twilight 5:21 AM MST 6:55 PM MST
Moon 1:09 PM MST (2/9) 2:56 AM MST (2/9)
Length of Visible Light 11h 30m
Length of Day
10h 35m
Waxing Gibbous, 77% of the Moon is Illuminated
Feb 9
Waxing Gibbous
Feb 14
Full
Feb 22
Last Quarter
Mar 1
New
Mar 8
First Quarter

Hourly Weather History & Observations

Time (MST) Temp. Windchill Dew Point Humidity Pressure Visibility Wind Dir Wind Speed Gust Speed Precip Events Conditions
12:53 AM 23.0 °F 8.0 °F 17.1 °F 78% 30.01 in 10.0 mi NE 20.7 mph - N/A   Clear
1:18 AM 21.9 °F 8.2 °F 19.0 °F 89% 29.98 in 9.0 mi NE 16.1 mph - N/A   Scattered Clouds
1:27 AM 21.9 °F 7.3 °F 19.0 °F 89% 29.98 in 6.0 mi ENE 18.4 mph - N/A   Mostly Cloudy
1:53 AM 21.0 °F 6.2 °F 18.0 °F 88% 30.02 in 4.0 mi East 18.4 mph - N/A   Overcast
2:09 AM 21.0 °F 6.6 °F 19.0 °F 92% 29.96 in 2.0 mi East 17.3 mph - N/A   Overcast
2:16 AM 21.0 °F 6.2 °F 19.0 °F 92% 29.97 in 2.5 mi East 18.4 mph - N/A   Overcast
2:24 AM 21.0 °F 7.1 °F 19.0 °F 92% 29.98 in 3.0 mi ENE 16.1 mph - N/A   Overcast
2:51 AM 19.4 °F 3.6 °F 17.6 °F 93% 30.00 in 4.0 mi ENE 19.6 mph - N/A   Overcast
2:53 AM 19.9 °F 4.8 °F 17.1 °F 89% 30.06 in 5.0 mi ENE 18.4 mph - N/A   Overcast
3:53 AM 19.0 °F 4.5 °F 16.0 °F 88% 30.06 in 4.0 mi ENE 16.1 mph - N/A   Overcast
4:44 AM 19.0 °F 4.5 °F 17.1 °F 92% 30.03 in 3.0 mi ENE 16.1 mph - N/A   Overcast
4:53 AM 19.0 °F 4.5 °F 16.0 °F 88% 30.09 in 3.0 mi ENE 16.1 mph - N/A   Overcast
5:03 AM 18.0 °F 3.1 °F 16.0 °F 92% 30.02 in 2.0 mi ENE 16.1 mph - N/A   Overcast
5:12 AM 18.0 °F 3.6 °F 16.0 °F 92% 30.02 in 1.8 mi ENE 15.0 mph - N/A   Overcast
5:21 AM 18.0 °F 4.2 °F 16.0 °F 92% 30.03 in 2.0 mi ENE 13.8 mph - N/A   Overcast
5:53 AM 18.0 °F 4.2 °F 16.0 °F 92% 30.12 in 2.0 mi ENE 13.8 mph - N/A   Overcast
6:01 AM 18.0 °F 6.1 °F 16.0 °F 92% 30.05 in 1.5 mi ENE 10.4 mph - N/A   Overcast
6:49 AM 17.6 °F 6.4 °F 15.8 °F 93% 30.06 in 1.0 mi ENE 9.2 mph - N/A   Overcast
6:53 AM 18.0 °F 6.1 °F 16.0 °F 92% 30.12 in 1.0 mi ENE 10.4 mph - N/A   Overcast
7:04 AM 18.0 °F 7.7 °F 16.0 °F 92% 30.05 in 0.5 mi ENE 8.1 mph - N/A Fog Light Freezing Fog
7:53 AM 19.0 °F 10.0 °F 16.0 °F 88% 30.11 in 0.2 mi NE 6.9 mph - N/A Fog Light Freezing Fog
8:53 AM 19.0 °F 10.0 °F 17.1 °F 92% 30.12 in 0.2 mi East 6.9 mph - N/A Fog Light Freezing Fog
9:53 AM 19.9 °F 10.1 °F 17.1 °F 89% 30.13 in 1.2 mi ESE 8.1 mph - N/A   Overcast
10:00 AM 19.9 °F 11.1 °F 17.1 °F 89% 30.08 in 3.0 mi SE 6.9 mph - N/A   Overcast
10:30 AM 19.9 °F 11.1 °F 17.1 °F 89% 30.08 in 5.0 mi SE 6.9 mph - N/A   Overcast
10:53 AM 19.9 °F 9.3 °F 17.1 °F 89% 30.13 in 2.0 mi ESE 9.2 mph - N/A   Overcast
11:18 AM 19.9 °F 12.1 °F 17.1 °F 89% 30.06 in 4.0 mi ESE 5.8 mph - N/A   Overcast
11:29 AM 19.9 °F 9.3 °F 17.1 °F 89% 30.05 in 6.0 mi ESE 9.2 mph - N/A   Overcast
11:53 AM 19.9 °F 9.3 °F 17.1 °F 89% 30.14 in 5.0 mi ESE 9.2 mph - N/A   Overcast
12:53 PM 21.0 °F 12.4 °F 18.0 °F 88% 30.12 in 6.0 mi East 6.9 mph - N/A   Overcast
1:38 PM 21.0 °F 10.6 °F 18.0 °F 88% 30.00 in 4.0 mi ESE 9.2 mph - N/A   Overcast
1:53 PM 21.0 °F 9.9 °F 18.0 °F 88% 30.10 in 3.0 mi ESE 10.4 mph - N/A   Overcast
2:05 PM 19.9 °F 8.6 °F 18.0 °F 92% 29.99 in 1.8 mi ESE 10.4 mph - N/A   Overcast
2:22 PM 21.0 °F 11.4 °F 18.0 °F 88% 29.99 in 0.8 mi East 8.1 mph - N/A   Overcast
2:53 PM 19.9 °F 8.6 °F 18.0 °F 92% 30.09 in 0.5 mi East 10.4 mph - N/A Fog Light Freezing Fog
3:53 PM 19.9 °F 5.7 °F 18.0 °F 92% 30.12 in 0.2 mi ENE 16.1 mph - N/A Fog Light Freezing Fog
4:53 PM 19.0 °F 4.5 °F 17.1 °F 92% 30.15 in 0.2 mi ENE 16.1 mph - N/A Fog Light Freezing Fog
5:53 PM 19.0 °F 3.6 °F 16.0 °F 88% 30.18 in 0.2 mi East 18.4 mph - N/A Fog Light Freezing Fog
6:53 PM 19.0 °F 7.5 °F 17.1 °F 92% 30.22 in 0.2 mi East 10.4 mph - N/A Fog Light Freezing Fog
7:40 PM 18.0 °F 5.4 °F 16.0 °F 92% 30.12 in 1.2 mi ESE 11.5 mph - N/A   Overcast
7:51 PM 17.6 °F 4.3 °F 15.8 °F 93% 30.12 in 2.0 mi ESE 12.7 mph - N/A   Overcast
7:53 PM 18.0 °F 5.4 °F 16.0 °F 92% 30.25 in 2.0 mi ESE 11.5 mph - N/A   Overcast
8:13 PM 18.0 °F 4.8 °F 16.0 °F 92% 30.12 in 4.0 mi ESE 12.7 mph - N/A   Overcast
8:53 PM 18.0 °F 7.7 °F 15.1 °F 88% 30.29 in 5.0 mi East 8.1 mph - N/A   Overcast
9:06 PM 18.0 °F 7.7 °F 15.1 °F 88% 30.17 in 5.0 mi East 8.1 mph - N/A   Overcast
9:29 PM 18.0 °F 6.9 °F 15.1 °F 88% 30.15 in 5.0 mi ESE 9.2 mph - N/A   Overcast
9:53 PM 18.0 °F 8.7 °F 16.0 °F 92% 30.30 in 4.0 mi ESE 6.9 mph - N/A   Overcast
10:53 PM 18.0 °F 11.1 °F 15.1 °F 88% 30.29 in 3.0 mi East 4.6 mph - N/A   Overcast
11:12 PM 18.0 °F 11.1 °F 15.1 °F 88% 30.16 in 2.5 mi East 4.6 mph - N/A   Overcast
11:53 PM 18.0 °F 11.1 °F 15.1 °F 88% 30.28 in 3.0 mi ENE 4.6 mph - N/A   Overcast